Lid_Strength_Index
4 4 5 5 4 4 5 4 3 3 4 4 3 1 1 1 1 2 2 2 2 2 3 2 2 0 2 2 3 3 2 2
6 6 6 6 5 4 4 4 4 4 4 4 4 3 3 2 1 2 3 3 3 3 3 2 3 2 2 3 3 2 2 2
7 6 6 5 5 4 4 3 3 4 3 4 3 3 3 3 2 2 3 3 3 3 3 3 3 3 3 3 3 2 2 2
5 6 6 5 4 4 3 3 3 3 3 3 3 2 3 4 3 3 3 4 3 3 3 2 3 2 2 3 3 2 3 3
6 5 4 4 4 4 4 4 3 3 3 3 3 2 2 3 3 3 2 2 2 1 2 2 2 2 1 2 2 2 2 2
6 4 4 4 5 4 4 2 2 2 2 2 3 2 2 2 2 2 2 1 2 2 3 2 1 2 2 3 2 2 2 2
5 4 4 4 4 5 4 4 3 2 1 2 3 2 2 1 1 2 2 1 1 2 2 1 1 2 2 2 2 2 2 2
5 4 4 4 4 4 4 4 3 2 1 2 1 2 2 2 3 3 2 2 1 1 2 2 1 1 2 2 2 2 2 1
4 3 3 3 3 3 3 3 4 3 2 2 3 3 3 3 3 3 2 2 1 1 1 2 1 2 2 2 2 2 1 1
4 4 4 3 4 4 4 4 3 3 3 3 3 3 3 3 2 2 1 1 2 2 2 2 2 2 2 2 2 2 2 1
5 4 4 4 4 4 4 3 3 3 3 3 3 3 3 3 3 3 2 1 1 2 1 2 2 2 2 2 3 3 2 2
5 5 4 4 4 3 3 3 3 2 3 3 3 3 4 3 3 2 1 1 1 1 1 1 1 2 2 2 2 2 2 2
5 5 4 4 3 3 3 2 2 2 2 2 3 3 3 2 2 2 1 1 1 -0 0 1 1 1 1 2 2 2 2 2
5 4 4 3 3 2 2 2 2 2 2 3 3 3 3 3 3 3 2 2 1 1 0 1 1 1 1 1 1 2 2 2
5 5 4 3 3 2 2 2 2 2 2 2 2 2 3 3 3 3 3 2 2 1 1 1 1 1 1 1 2 2 2 2
5 4 3 3 3 3 3 2 3 2 2 2 2 2 2 2 2 2 3 3 2 0 -0 0 1 1 1 1 1 1 1 1
6 6 5 4 4 3 3 3 3 2 3 2 2 1 2 2 2 3 3 3 1 0 -0 0 -0 1 1 0 1 1 1 1
6 5 5 5 5 4 4 4 3 4 4 2 1 2 1 2 3 3 3 2 1 1 1 0 0 0 1 1 1 1 1 1
7 7 7 7 6 6 5 5 4 3 4 4 3 2 3 3 3 3 3 2 1 1 0 0 1 0 0 1 1 1 1 1
8 9 9 7 6 5 5 4 4 5 4 3 3 2 4 4 4 3 3 2 1 1 1 1 1 1 1 1 1 1 1 1